TimeHST,TemperatureF,Dew PointF,Humidity,Sea Level PressureIn,VisibilityMPH,Wind Direction,Wind SpeedMPH,Gust SpeedMPH,PrecipitationIn,Events,Conditions,WindDirDegrees,DateUTC
12:53 AM,68.0,66.0,93,30.03,7.0,Calm,Calm,-,N/A,,Mostly Cloudy,0,2013-03-12 10:53:00
1:53 AM,68.0,66.0,93,29.99,10.0,Calm,Calm,-,N/A,,Mostly Cloudy,0,2013-03-12 11:53:00
2:53 AM,66.9,64.0,90,29.98,10.0,Calm,Calm,-,N/A,,Mostly Cloudy,0,2013-03-12 12:53:00
3:53 AM,66.9,64.0,90,29.99,10.0,WSW,5.8,-,N/A,,Overcast,250,2013-03-12 13:53:00
4:53 AM,66.9,64.0,90,29.98,10.0,Calm,Calm,-,N/A,,Overcast,0,2013-03-12 14:53:00
5:53 AM,66.9,64.0,90,30.00,10.0,Calm,Calm,-,N/A,,Overcast,0,2013-03-12 15:53:00
6:53 AM,66.9,62.1,84,30.01,10.0,WSW,4.6,-,N/A,,Overcast,250,2013-03-12 16:53:00
7:53 AM,68.0,63.0,84,30.03,10.0,WSW,4.6,-,N/A,,Overcast,250,2013-03-12 17:53:00
8:53 AM,71.1,64.9,81,30.04,10.0,Calm,Calm,-,N/A,,Overcast,0,2013-03-12 18:53:00
9:53 AM,73.0,64.9,76,30.06,10.0,Calm,Calm,-,N/A,,Overcast,0,2013-03-12 19:53:00
10:53 AM,75.0,66.0,73,30.05,10.0,NNE,5.8,-,N/A,,Overcast,30,2013-03-12 20:53:00
11:53 AM,75.0,66.9,76,30.04,10.0,NNE,4.6,-,N/A,,Overcast,30,2013-03-12 21:53:00
12:53 PM,75.0,66.0,73,30.00,10.0,NNE,9.2,-,N/A,,Overcast,20,2013-03-12 22:53:00
1:53 PM,75.0,66.0,73,30.00,10.0,NNE,6.9,-,N/A,,Overcast,20,2013-03-12 23:53:00
2:53 PM,75.0,66.9,76,29.98,10.0,NNE,9.2,-,N/A,,Overcast,30,2013-03-13 00:53:00
3:53 PM,73.9,66.0,76,29.98,10.0,NNE,6.9,-,N/A,,Overcast,20,2013-03-13 01:53:00
4:53 PM,73.9,66.9,79,30.00,10.0,NNE,8.1,-,N/A,,Overcast,20,2013-03-13 02:53:00
5:17 PM,-9999,-9999,N/A,30.00,10.0,NNE,6.9,-,N/A,,Overcast,20,2013-03-13 03:17:00
5:32 PM,-9999,-9999,N/A,30.00,10.0,North,6.9,-,N/A,,Overcast,10,2013-03-13 03:32:00
5:53 PM,73.0,64.9,76,30.00,10.0,North,5.8,-,N/A,,Mostly Cloudy,10,2013-03-13 03:53:00
6:53 PM,73.4,66.2,78,30.02,10.0,North,4.6,-,N/A,,Overcast,10,2013-03-13 04:53:00
7:53 PM,73.0,68.0,84,30.05,10.0,North,4.6,-,N/A,,Overcast,350,2013-03-13 05:53:00
8:53 PM,73.0,66.9,81,30.06,10.0,North,5.8,-,N/A,,Overcast,360,2013-03-13 06:53:00
9:03 PM,72.0,66.0,81,30.07,10.0,North,6.9,-,N/A,,Overcast,360,2013-03-13 07:03:00
9:53 PM,72.0,66.0,81,30.09,10.0,North,5.8,-,N/A,,Overcast,350,2013-03-13 07:53:00
10:10 PM,72.0,66.0,81,30.09,10.0,North,3.5,-,N/A,,Overcast,360,2013-03-13 08:10:00
10:28 PM,72.0,66.0,81,30.09,10.0,North,4.6,-,N/A,,Overcast,360,2013-03-13 08:28:00
10:53 PM,72.0,66.0,81,30.09,10.0,NNW,5.8,-,N/A,,Overcast,340,2013-03-13 08:53:00
11:03 PM,-9999,-9999,N/A,30.09,10.0,North,5.8,-,N/A,,Overcast,360,2013-03-13 09:03:00
11:11 PM,-9999,-9999,N/A,30.08,10.0,North,5.8,-,N/A,,Overcast,10,2013-03-13 09:11:00
11:43 PM,-9999,-9999,N/A,30.08,10.0,WNW,5.8,-,N/A,,Overcast,300,2013-03-13 09:43:00
11:53 PM,71.1,64.9,81,30.08,10.0,WNW,4.6,-,N/A,,Overcast,290,2013-03-13 09:53:00